AAL824 KDCA-KLGA

Flight info

Callsign AAL824
Flight time 0h 39m
Altitude 25000
Route DOCTR5 AGARD SPEAK PROUD2
Aircraft B738/M-SDE2E3FGHIRWXY/LB1

Departure

Time 2026-04-26 04:22
Airport Ronald Reagan Washington National Airport (KDCA)

Arrival

Time 2026-04-26 05:01
Airport LaGuardia Airport (KLGA)
Time Latitude Longitude Altitude Speed Heading
2026-04-26 04:02 38.85033 -77.04065 20 ft 0 kts 265°
2026-04-26 04:14 38.85033 -77.04062 20 ft 2 kts 265°
2026-04-26 04:15 38.85036 -77.04029 22 ft 4 kts 260°
2026-04-26 04:15 38.85042 -77.03995 20 ft 4 kts 246°
2026-04-26 04:15 38.85057 -77.03970 24 ft 4 kts 198°
2026-04-26 04:15 38.85065 -77.03967 22 ft 1 kts 175°
2026-04-26 04:18 38.85051 -77.03966 23 ft 8 kts 175°
2026-04-26 04:18 38.84944 -77.03956 20 ft 23 kts 175°
2026-04-26 04:19 38.84786 -77.03940 22 ft 2 kts 175°
2026-04-26 04:19 38.84778 -77.03937 24 ft 6 kts 166°
2026-04-26 04:19 38.84724 -77.03882 24 ft 15 kts 151°
2026-04-26 04:19 38.84581 -77.03859 24 ft 25 kts 176°
2026-04-26 04:20 38.84394 -77.03839 27 ft 19 kts 175°
2026-04-26 04:20 38.84262 -77.03824 26 ft 18 kts 164°
2026-04-26 04:20 38.84230 -77.03797 24 ft 0 kts 133°
2026-04-26 04:20 38.84204 -77.03729 23 ft 14 kts 90°
2026-04-26 04:21 38.84256 -77.03687 22 ft 0 kts 357°
2026-04-26 04:21 38.84309 -77.03690 21 ft 31 kts 356°
2026-04-26 04:21 38.84838 -77.03748 24 ft 119 kts 355°
2026-04-26 04:21 38.85858 -77.03837 143 ft 166 kts 358°
2026-04-26 04:22 38.87009 -77.04091 989 ft 169 kts 343°
2026-04-26 04:22 38.88044 -77.04836 1898 ft 179 kts 326°
2026-04-26 04:22 38.89080 -77.05939 2402 ft 204 kts 321°
2026-04-26 04:22 38.90145 -77.07309 2718 ft 234 kts 307°
2026-04-26 04:23 38.90990 -77.09204 3341 ft 247 kts 296°
2026-04-26 04:23 38.91949 -77.11004 4270 ft 246 kts 320°
2026-04-26 04:23 38.93368 -77.12286 4804 ft 252 kts 326°
2026-04-26 04:23 38.94838 -77.13506 5007 ft 255 kts 328°
2026-04-26 04:24 38.96434 -77.14592 4995 ft 261 kts 338°
2026-04-26 04:24 38.98217 -77.14911 5005 ft 262 kts
2026-04-26 04:24 38.99968 -77.14199 5112 ft 269 kts 27°
2026-04-26 04:24 39.01487 -77.12760 5806 ft 275 kts 36°
2026-04-26 04:25 39.02959 -77.11167 6667 ft 279 kts 44°
2026-04-26 04:25 39.03926 -77.08977 7406 ft 290 kts 76°
2026-04-26 04:25 39.04028 -77.06375 8187 ft 295 kts 94°
2026-04-26 04:25 39.03846 -77.03719 8994 ft 299 kts 96°
2026-04-26 04:26 39.03624 -77.01044 9794 ft 303 kts 96°
2026-04-26 04:26 39.03401 -76.98383 10514 ft 307 kts 96°
2026-04-26 04:26 39.03177 -76.95642 11262 ft 310 kts 96°
2026-04-26 04:26 39.02958 -76.92867 11987 ft 315 kts 96°
2026-04-26 04:27 39.02736 -76.89984 12277 ft 336 kts 95°
2026-04-26 04:27 39.02503 -76.86912 12641 ft 352 kts 95°
2026-04-26 04:27 39.02264 -76.83735 13257 ft 360 kts 96°
2026-04-26 04:27 39.02022 -76.80520 13992 ft 363 kts 96°
2026-04-26 04:28 39.01778 -76.77276 14678 ft 366 kts 96°
2026-04-26 04:28 39.01532 -76.74009 15332 ft 369 kts 96°
2026-04-26 04:28 39.01282 -76.70698 15975 ft 373 kts 96°
2026-04-26 04:28 39.01027 -76.67357 16616 ft 377 kts 96°
2026-04-26 04:29 39.00844 -76.63974 17253 ft 381 kts 91°
2026-04-26 04:29 39.00842 -76.60592 17882 ft 385 kts 89°
2026-04-26 04:29 39.00894 -76.57138 18486 ft 389 kts 88°
2026-04-26 04:29 39.00944 -76.53640 18986 ft 394 kts 89°
2026-04-26 04:30 39.00974 -76.50092 19440 ft 399 kts 89°
2026-04-26 04:30 39.00986 -76.46492 19851 ft 407 kts 90°
2026-04-26 04:30 39.00991 -76.42829 20370 ft 411 kts 90°
2026-04-26 04:30 39.01078 -76.39145 21013 ft 411 kts 84°
2026-04-26 04:31 39.01283 -76.36674 21381 ft 413 kts 82°
2026-04-26 04:31 39.01682 -76.33039 21796 ft 419 kts 81°
2026-04-26 04:31 39.02121 -76.29296 22232 ft 424 kts 81°
2026-04-26 04:31 39.02547 -76.25524 22703 ft 429 kts 81°
2026-04-26 04:32 39.02953 -76.21693 23176 ft 433 kts 82°
2026-04-26 04:32 39.03342 -76.17831 23621 ft 437 kts 82°
2026-04-26 04:32 39.03725 -76.13934 23995 ft 441 kts 82°
2026-04-26 04:32 39.04108 -76.10010 24481 ft 442 kts 83°
2026-04-26 04:33 39.04481 -76.06079 24889 ft 445 kts 84°
2026-04-26 04:33 39.04725 -76.02134 24986 ft 448 kts 87°
2026-04-26 04:33 39.04875 -75.98171 24990 ft 447 kts 88°
2026-04-26 04:33 39.05002 -75.94240 24999 ft 447 kts 88°
2026-04-26 04:34 39.05143 -75.90242 25009 ft 447 kts 88°
2026-04-26 04:34 39.05303 -75.86246 25009 ft 448 kts 87°
2026-04-26 04:34 39.05474 -75.82247 25006 ft 448 kts 87°
2026-04-26 04:34 39.05684 -75.78240 24988 ft 448 kts 82°
2026-04-26 04:35 39.06577 -75.74429 25009 ft 445 kts 63°
2026-04-26 04:35 39.08256 -75.71115 24922 ft 441 kts 46°
2026-04-26 04:35 39.10365 -75.68282 24667 ft 437 kts 42°
2026-04-26 04:35 39.12521 -75.65535 24297 ft 433 kts 41°
2026-04-26 04:36 39.14650 -75.62822 24018 ft 427 kts 42°
2026-04-26 04:36 39.16742 -75.60113 23721 ft 426 kts 43°
2026-04-26 04:36 39.18810 -75.57392 23401 ft 424 kts 43°
2026-04-26 04:36 39.20861 -75.54669 23057 ft 422 kts 43°
2026-04-26 04:37 39.22901 -75.51964 22709 ft 420 kts 42°
2026-04-26 04:37 39.25122 -75.49559 22359 ft 414 kts 32°
2026-04-26 04:37 39.27495 -75.47471 22035 ft 411 kts 30°
2026-04-26 04:37 39.29890 -75.45450 21657 ft 410 kts 30°
2026-04-26 04:38 39.32242 -75.43458 21287 ft 409 kts 30°
2026-04-26 04:38 39.34637 -75.41394 20926 ft 408 kts 31°
2026-04-26 04:38 39.36954 -75.39365 20570 ft 406 kts 31°
2026-04-26 04:38 39.39275 -75.37310 20220 ft 403 kts 32°
2026-04-26 04:39 39.41570 -75.35266 19855 ft 399 kts 32°
2026-04-26 04:39 39.43851 -75.33231 19498 ft 397 kts 32°
2026-04-26 04:39 39.46112 -75.31213 19145 ft 393 kts 32°
2026-04-26 04:39 39.48355 -75.29211 18793 ft 388 kts 32°
2026-04-26 04:40 39.50562 -75.27239 18453 ft 384 kts 32°
2026-04-26 04:40 39.52733 -75.25253 18075 ft 380 kts 33°
2026-04-26 04:40 39.54868 -75.23251 17691 ft 376 kts 34°
2026-04-26 04:40 39.56972 -75.21266 17301 ft 372 kts 34°
2026-04-26 04:41 39.59060 -75.19297 16913 ft 369 kts 34°
2026-04-26 04:41 39.61128 -75.17351 16539 ft 366 kts 34°
2026-04-26 04:41 39.63178 -75.15425 16168 ft 363 kts 34°
2026-04-26 04:41 39.65192 -75.13535 15797 ft 361 kts 33°
2026-04-26 04:42 39.67219 -75.11630 15445 ft 359 kts 33°
2026-04-26 04:42 39.69256 -75.09771 15072 ft 356 kts 32°
2026-04-26 04:42 39.71316 -75.08002 14715 ft 355 kts 31°
2026-04-26 04:42 39.73378 -75.06256 14361 ft 352 kts 31°
2026-04-26 04:43 39.75425 -75.04519 14033 ft 349 kts 31°
2026-04-26 04:43 39.77440 -75.02797 13713 ft 345 kts 31°
2026-04-26 04:43 39.79436 -75.01082 13365 ft 342 kts 31°
2026-04-26 04:43 39.81365 -74.99419 13034 ft 339 kts 31°
2026-04-26 04:44 39.83326 -74.97726 12699 ft 336 kts 31°
2026-04-26 04:44 39.85265 -74.96047 12366 ft 333 kts 32°
2026-04-26 04:44 39.87138 -74.94365 12046 ft 331 kts 33°
2026-04-26 04:44 39.89015 -74.92655 11731 ft 328 kts 33°
2026-04-26 04:45 39.90877 -74.90958 11457 ft 324 kts 33°
2026-04-26 04:45 39.92685 -74.89223 11183 ft 322 kts 40°
2026-04-26 04:45 39.94228 -74.87125 10918 ft 319 kts 47°
2026-04-26 04:45 39.95675 -74.84953 10649 ft 316 kts 48°
2026-04-26 04:46 39.97123 -74.82804 10382 ft 313 kts 47°
2026-04-26 04:46 39.98566 -74.80690 10118 ft 311 kts 47°
2026-04-26 04:46 40.00002 -74.78623 9997 ft 312 kts 46°
2026-04-26 04:46 40.01477 -74.76510 9979 ft 316 kts 46°
2026-04-26 04:47 40.02955 -74.74393 9962 ft 314 kts 46°
2026-04-26 04:47 40.04413 -74.72301 9944 ft 311 kts 46°
2026-04-26 04:47 40.05870 -74.70210 9948 ft 311 kts 46°
2026-04-26 04:47 40.07328 -74.68116 9959 ft 312 kts 46°
2026-04-26 04:48 40.10256 -74.63906 9884 ft 315 kts 46°
2026-04-26 04:48 40.11741 -74.61769 9549 ft 319 kts 46°
2026-04-26 04:48 40.13215 -74.59646 9244 ft 318 kts 46°
2026-04-26 04:49 40.14697 -74.57509 8931 ft 316 kts 46°
2026-04-26 04:49 40.16169 -74.55386 8623 ft 314 kts 46°
2026-04-26 04:49 40.17625 -74.53285 8321 ft 312 kts 46°
2026-04-26 04:49 40.19078 -74.51186 8020 ft 310 kts 46°
2026-04-26 04:50 40.20530 -74.49105 7727 ft 309 kts 45°
2026-04-26 04:50 40.22053 -74.47135 7433 ft 307 kts 42°
2026-04-26 04:50 40.23601 -74.45220 7141 ft 306 kts 42°
2026-04-26 04:50 40.25139 -74.43311 6852 ft 304 kts 42°
2026-04-26 04:51 40.26666 -74.41396 6560 ft 303 kts 43°
2026-04-26 04:51 40.28181 -74.39487 6263 ft 302 kts 43°
2026-04-26 04:51 40.29687 -74.37587 6020 ft 298 kts 45°
2026-04-26 04:51 40.31164 -74.35717 5978 ft 293 kts 45°
2026-04-26 04:52 40.32623 -74.33868 5969 ft 290 kts 45°
2026-04-26 04:52 40.34081 -74.32021 5981 ft 293 kts 45°
2026-04-26 04:52 40.35559 -74.30147 5986 ft 298 kts 45°
2026-04-26 04:52 40.37047 -74.28260 5967 ft 297 kts 45°
2026-04-26 04:53 40.38527 -74.26383 5968 ft 295 kts 45°
2026-04-26 04:53 40.39976 -74.24544 5982 ft 293 kts 45°
2026-04-26 04:53 40.41437 -74.22687 5987 ft 292 kts 46°
2026-04-26 04:53 40.42894 -74.20834 6001 ft 292 kts 46°
2026-04-26 04:54 40.44353 -74.18965 5935 ft 294 kts 46°
2026-04-26 04:54 40.45838 -74.17073 5650 ft 296 kts 46°
2026-04-26 04:54 40.47310 -74.15210 5429 ft 291 kts 46°
2026-04-26 04:54 40.48752 -74.13375 5179 ft 287 kts 47°
2026-04-26 04:55 40.50173 -74.11562 4942 ft 282 kts 48°
2026-04-26 04:55 40.51573 -74.09780 4702 ft 278 kts 47°
2026-04-26 04:55 40.53083 -74.08209 4448 ft 276 kts 36°
2026-04-26 04:55 40.54697 -74.06873 4193 ft 273 kts 35°
2026-04-26 04:56 40.56282 -74.05586 3951 ft 269 kts 35°
2026-04-26 04:56 40.57858 -74.04294 3702 ft 264 kts 36°
2026-04-26 04:56 40.59385 -74.03020 3496 ft 254 kts 36°
2026-04-26 04:56 40.60844 -74.01791 3228 ft 244 kts 36°
2026-04-26 04:57 40.62223 -74.00625 3010 ft 226 kts 36°
2026-04-26 04:57 40.63466 -73.99554 2793 ft 212 kts 39°
2026-04-26 04:57 40.64621 -73.98446 2552 ft 198 kts 41°
2026-04-26 04:57 40.65677 -73.97376 2312 ft 185 kts 43°
2026-04-26 04:58 40.66669 -73.96378 2073 ft 173 kts 41°
2026-04-26 04:58 40.67585 -73.95461 1822 ft 159 kts 43°
2026-04-26 04:58 40.68435 -73.94603 1715 ft 155 kts 40°
2026-04-26 04:58 40.69374 -73.93918 1680 ft 158 kts 14°
2026-04-26 04:59 40.70481 -73.94150 1653 ft 168 kts 351°
2026-04-26 04:59 40.71575 -73.93991 1444 ft 150 kts 41°
2026-04-26 04:59 40.72179 -73.92927 1237 ft 146 kts 52°
2026-04-26 04:59 40.72846 -73.91914 1052 ft 149 kts 47°
2026-04-26 05:00 40.73677 -73.91054 819 ft 155 kts 36°
2026-04-26 05:00 40.74576 -73.90290 710 ft 148 kts 33°
2026-04-26 05:00 40.75485 -73.89628 421 ft 154 kts 31°
2026-04-26 05:00 40.76385 -73.88909 216 ft 149 kts 33°
2026-04-26 05:01 40.77223 -73.88171 20 ft 138 kts 33°
2026-04-26 05:01 40.77880 -73.87615 14 ft 85 kts 31°
2026-04-26 05:01 40.78228 -73.87340 12 ft 31 kts 31°
2026-04-26 05:01 40.78286 -73.87292 11 ft 3 kts 33°
2026-04-26 05:02 40.78345 -73.87239 11 ft 17 kts 34°
2026-04-26 05:02 40.78474 -73.87128 12 ft 26 kts 38°
2026-04-26 05:02 40.78497 -73.87031 10 ft 5 kts 128°
2026-04-26 05:02 40.78451 -73.87009 11 ft 14 kts 171°
2026-04-26 05:03 40.78352 -73.87067 13 ft 19 kts 213°
2026-04-26 05:03 40.78239 -73.87169 11 ft 21 kts 214°
2026-04-26 05:03 40.78121 -73.87269 12 ft 20 kts 211°
2026-04-26 05:03 40.78004 -73.87363 13 ft 19 kts 212°
2026-04-26 05:04 40.77892 -73.87453 19 ft 17 kts 196°
2026-04-26 05:04 40.77812 -73.87407 18 ft 12 kts 156°
2026-04-26 05:04 40.77735 -73.87425 18 ft 13 kts 223°
2026-04-26 05:04 40.77692 -73.87485 20 ft 5 kts 190°
2026-04-26 05:05 40.77659 -73.87458 19 ft 7 kts 138°
2026-04-26 05:05 40.77616 -73.87418 20 ft 8 kts 149°
2026-04-26 05:05 40.77606 -73.87409 20 ft 0 kts 146°